TimeAKST,TemperatureF,Dew PointF,Humidity,Sea Level PressureIn,VisibilityMPH,Wind Direction,Wind SpeedMPH,Gust SpeedMPH,PrecipitationIn,Events,Conditions,WindDirDegrees,DateUTC
12:16 AM,35.6,30.2,81,29.82,10.0,NNW,10.4,-,N/A,,Overcast,340,2012-11-07 09:16:00
12:36 AM,35.6,30.2,81,29.83,10.0,NNW,8.1,-,N/A,,Overcast,340,2012-11-07 09:36:00
12:56 AM,35.6,30.2,81,29.84,10.0,NNW,9.2,-,N/A,,Overcast,340,2012-11-07 09:56:00
1:16 AM,35.6,30.2,81,29.85,10.0,NNW,9.2,-,N/A,,Overcast,330,2012-11-07 10:16:00
1:36 AM,35.6,30.2,81,29.86,10.0,NNW,8.1,-,N/A,,Overcast,340,2012-11-07 10:36:00
1:56 AM,35.6,30.2,81,29.87,10.0,NNW,11.5,16.1,N/A,,Overcast,340,2012-11-07 10:56:00
2:16 AM,35.6,30.2,81,29.87,10.0,NNW,12.7,-,N/A,,Overcast,340,2012-11-07 11:16:00
2:36 AM,35.6,28.4,75,29.88,10.0,NNW,11.5,17.3,N/A,,Mostly Cloudy,340,2012-11-07 11:36:00
3:36 AM,35.6,28.4,75,29.90,10.0,NNW,11.5,-,N/A,,Overcast,330,2012-11-07 12:36:00
3:56 AM,35.6,28.4,75,29.91,10.0,NNW,12.7,-,N/A,,Overcast,330,2012-11-07 12:56:00
4:16 AM,35.6,28.4,75,29.92,10.0,NNW,12.7,-,N/A,,Mostly Cloudy,340,2012-11-07 13:16:00
4:36 AM,35.6,28.4,75,29.93,10.0,NNW,10.4,-,N/A,,Overcast,330,2012-11-07 13:36:00
4:56 AM,33.8,28.4,81,29.94,10.0,NNW,10.4,17.3,N/A,,Mostly Cloudy,330,2012-11-07 13:56:00
5:16 AM,33.8,28.4,81,29.95,10.0,NNW,11.5,-,N/A,,Overcast,340,2012-11-07 14:16:00
5:36 AM,33.8,28.4,81,29.97,7.0,NNW,11.5,-,N/A,,Mostly Cloudy,340,2012-11-07 14:36:00
5:56 AM,33.8,28.4,81,29.98,3.0,NNW,12.7,-,N/A,,Overcast,340,2012-11-07 14:56:00
6:16 AM,33.8,28.4,81,29.99,4.0,NNW,11.5,-,N/A,,Overcast,340,2012-11-07 15:16:00
6:36 AM,33.8,28.4,81,30.00,5.0,NNW,10.4,-,N/A,,Overcast,330,2012-11-07 15:36:00
6:56 AM,33.8,28.4,81,30.00,7.0,NNW,10.4,-,N/A,,Overcast,330,2012-11-07 15:56:00
7:16 AM,33.8,28.4,81,30.02,10.0,NNW,9.2,-,N/A,,Overcast,330,2012-11-07 16:16:00
7:36 AM,33.8,26.6,75,30.03,10.0,NNW,10.4,-,N/A,,Overcast,340,2012-11-07 16:36:00
7:56 AM,35.6,26.6,70,30.04,10.0,NNW,8.1,-,N/A,,Overcast,330,2012-11-07 16:56:00
8:16 AM,35.6,26.6,70,30.05,10.0,NNW,6.9,-,N/A,,Overcast,330,2012-11-07 17:16:00
8:36 AM,35.6,26.6,70,30.05,10.0,North,5.8,-,N/A,,Overcast,350,2012-11-07 17:36:00
8:56 AM,35.6,26.6,70,30.07,10.0,North,4.6,-,N/A,,Overcast,350,2012-11-07 17:56:00
9:16 AM,35.6,26.6,70,30.07,10.0,North,5.8,-,N/A,,Mostly Cloudy,350,2012-11-07 18:16:00
9:36 AM,35.6,26.6,70,30.08,10.0,North,4.6,-,N/A,,Mostly Cloudy,350,2012-11-07 18:36:00
9:56 AM,35.6,24.8,65,30.09,10.0,North,4.6,-,N/A,,Overcast,360,2012-11-07 18:56:00
10:16 AM,37.4,24.8,60,30.10,10.0,North,4.6,-,N/A,,Scattered Clouds,350,2012-11-07 19:16:00
10:36 AM,37.4,26.6,65,30.11,10.0,NNW,4.6,-,N/A,,Mostly Cloudy,340,2012-11-07 19:36:00
10:56 AM,37.4,24.8,60,30.12,10.0,NNW,5.8,-,N/A,,Overcast,340,2012-11-07 19:56:00
11:16 AM,37.4,24.8,60,30.13,10.0,NNW,5.8,-,N/A,,Overcast,330,2012-11-07 20:16:00
11:36 AM,37.4,24.8,60,30.14,10.0,NNW,4.6,-,N/A,,Overcast,330,2012-11-07 20:36:00
11:56 AM,37.4,24.8,60,30.14,10.0,NNW,3.5,-,N/A,,Scattered Clouds,340,2012-11-07 20:56:00
12:16 PM,37.4,24.8,60,30.15,10.0,NNW,4.6,-,N/A,,Scattered Clouds,330,2012-11-07 21:16:00
12:36 PM,37.4,24.8,60,30.16,10.0,NNW,4.6,-,N/A,,Partly Cloudy,340,2012-11-07 21:36:00
12:56 PM,37.4,23.0,56,30.16,10.0,NNW,11.5,-,N/A,,Partly Cloudy,330,2012-11-07 21:56:00
1:16 PM,37.4,23.0,56,30.18,10.0,NW,8.1,-,N/A,,Partly Cloudy,320,2012-11-07 22:16:00
1:36 PM,37.4,21.2,52,30.18,10.0,NNW,6.9,-,N/A,,Clear,330,2012-11-07 22:36:00
1:56 PM,37.4,21.2,52,30.19,10.0,NNW,8.1,-,N/A,,Clear,330,2012-11-07 22:56:00
2:16 PM,37.4,23.0,56,30.19,10.0,NNW,5.8,-,N/A,,Clear,340,2012-11-07 23:16:00
2:36 PM,37.4,23.0,56,30.20,10.0,NNW,5.8,-,N/A,,Clear,330,2012-11-07 23:36:00
2:56 PM,37.4,21.2,52,30.20,10.0,NW,5.8,-,N/A,,Clear,320,2012-11-07 23:56:00
3:16 PM,37.4,21.2,52,30.21,10.0,NNW,5.8,-,N/A,,Clear,330,2012-11-08 00:16:00
3:36 PM,35.6,21.2,56,30.22,10.0,NNW,3.5,-,N/A,,Clear,330,2012-11-08 00:36:00
3:56 PM,35.6,23.0,60,30.23,10.0,NNW,3.5,-,N/A,,Clear,330,2012-11-08 00:56:00
4:16 PM,35.6,21.2,56,30.24,10.0,Calm,Calm,-,N/A,,Clear,0,2012-11-08 01:16:00
4:36 PM,33.8,24.8,70,30.24,10.0,Calm,Calm,-,N/A,,Clear,0,2012-11-08 01:36:00
4:56 PM,32.0,24.8,75,30.24,10.0,Calm,Calm,-,N/A,,Clear,0,2012-11-08 01:56:00
5:16 PM,30.2,24.8,80,30.25,10.0,Calm,Calm,-,N/A,,Clear,0,2012-11-08 02:16:00
5:36 PM,30.2,24.8,80,30.25,10.0,Calm,Calm,-,N/A,,Clear,0,2012-11-08 02:36:00
5:56 PM,28.4,24.8,86,30.26,10.0,Calm,Calm,-,N/A,,Clear,0,2012-11-08 02:56:00
6:16 PM,28.4,23.0,80,30.27,10.0,Calm,Calm,-,N/A,,Clear,0,2012-11-08 03:16:00
6:36 PM,28.4,23.0,80,30.27,10.0,NNW,3.5,-,N/A,,Clear,330,2012-11-08 03:36:00
6:56 PM,28.4,23.0,80,30.28,10.0,Calm,Calm,-,N/A,,Clear,0,2012-11-08 03:56:00
7:16 PM,28.4,23.0,80,30.29,10.0,Calm,Calm,-,N/A,,Clear,0,2012-11-08 04:16:00
7:36 PM,28.4,23.0,80,30.29,10.0,Calm,Calm,-,N/A,,Clear,0,2012-11-08 04:36:00
7:56 PM,28.4,23.0,80,30.29,10.0,Calm,Calm,-,N/A,,Clear,0,2012-11-08 04:56:00
8:16 PM,26.6,21.2,80,30.30,10.0,Calm,Calm,-,N/A,,Clear,0,2012-11-08 05:16:00
8:36 PM,26.6,23.0,86,30.31,10.0,Calm,Calm,-,N/A,,Clear,0,2012-11-08 05:36:00
8:56 PM,26.6,21.2,80,30.31,10.0,Calm,Calm,-,N/A,,Clear,0,2012-11-08 05:56:00
9:16 PM,26.6,21.2,80,30.32,10.0,Calm,Calm,-,N/A,,Clear,0,2012-11-08 06:16:00
9:36 PM,26.6,19.4,74,30.32,10.0,Calm,Calm,-,N/A,,Clear,0,2012-11-08 06:36:00
9:56 PM,26.6,19.4,74,30.32,10.0,Calm,Calm,-,N/A,,Clear,0,2012-11-08 06:56:00
10:16 PM,24.8,19.4,80,30.33,10.0,NNW,3.5,-,N/A,,Clear,330,2012-11-08 07:16:00
10:36 PM,26.6,21.2,80,30.33,10.0,Calm,Calm,-,N/A,,Clear,0,2012-11-08 07:36:00
10:56 PM,24.8,19.4,80,30.33,10.0,Calm,Calm,-,N/A,,Clear,0,2012-11-08 07:56:00
11:16 PM,26.6,19.4,74,30.34,10.0,Calm,Calm,-,N/A,,Clear,0,2012-11-08 08:16:00
11:36 PM,24.8,19.4,80,30.34,10.0,Calm,Calm,-,N/A,,Clear,0,2012-11-08 08:36:00
11:56 PM,24.8,19.4,80,30.35,10.0,Calm,Calm,-,N/A,,Clear,0,2012-11-08 08:56:00